This is the latest recevied weather packets stored in our database for station/object ZL3GL-4. If no packets are shown the sender has not sent any weather packets the latest 1 day(s).
| Time | Temp. | Humidity | Pressure | Rain* | Wind** | Luminosity | Snow |
|---|---|---|---|---|---|---|---|
| 1778031188 | 11.11° C | 100% | 1019.1 hPa | 0 mm | 1.79 m/s, 357° | - | - |
| 1778030340 | 11.11° C | 100% | 1019.4 hPa | 0 mm | 1.79 m/s, 27° | - | - |
| 1778029500 | 11.11° C | 100% | 1019.4 hPa | 0 mm | 1.79 m/s, 343° | - | - |
| 1778028654 | 11.11° C | 100% | 1019.4 hPa | 0 mm | 1.34 m/s, 338° | - | - |
| 1778027813 | 11.11° C | 100% | 1019.1 hPa | 0 mm | 0.45 m/s, 335° | - | - |
| 1778026969 | 10.56° C | 100% | 1019 hPa | 0 mm | 0.89 m/s, 44° | - | - |
| 1778026133 | 9.44° C | 100% | 1019.1 hPa | 0 mm | 1.34 m/s, 35° | - | - |
| 1778025279 | 8.89° C | 100% | 1019.4 hPa | 0 mm | 0.89 m/s, 100° | - | - |
| 1778024437 | 8.33° C | 100% | 1019.5 hPa | 0 mm | 0 m/s | - | - |
| 1778023591 | 8.33° C | 100% | 1019.5 hPa | 0 mm | 0.89 m/s, 98° | - | - |
| 1778022751 | 7.78° C | 100% | 1019.5 hPa | 0 mm | 0.45 m/s, 257° | - | - |
| 1778021908 | 7.22° C | 100% | 1019.3 hPa | 0 mm | 1.34 m/s, 169° | - | - |
| 1778021058 | 7.22° C | 100% | 1019.4 hPa | 0 mm | 0.45 m/s, 174° | - | - |
| 1778019371 | 6.11° C | 100% | 1019.5 hPa | 0 mm | 0.89 m/s, 131° | - | - |
| 1778018530 | 6.11° C | 100% | 1019.3 hPa | 0 mm | 1.79 m/s, 179° | - | - |
| 1778017688 | 5.56° C | 100% | 1019.4 hPa | 0 mm | 2.24 m/s, 180° | - | - |
| 1778016844 | 5° C | 100% | 1019.3 hPa | 0 mm | 1.34 m/s, 228° | - | - |
| 1778016003 | 5° C | 100% | 1019.1 hPa | 0 mm | 0.89 m/s, 158° | - | - |
| 1778015161 | 4.44° C | 100% | 1018.8 hPa | 0 mm | 1.79 m/s, 204° | - | - |
| 1778014318 | 3.89° C | 100% | 1018.8 hPa | 0 mm | 1.79 m/s, 193° | - | - |
| 1778013477 | 3.89° C | 100% | 1018.8 hPa | 0 mm | 0.89 m/s, 240° | - | - |
| 1778012632 | 3.33° C | 100% | 1018.8 hPa | 0 mm | 1.79 m/s, 191° | - | - |
| 1778011790 | 3.33° C | 100% | 1018.8 hPa | 0 mm | 0.89 m/s, 222° | - | - |
| 1778010947 | 2.78° C | 100% | 1018.8 hPa | 0 mm | 0 m/s | - | - |
| 1778010102 | 2.78° C | 100% | 1018.7 hPa | 0 mm | 0.89 m/s, 260° | - | - |
* Rain latest hour (hover to see other rain measurements)
** Current wind speed in m/s (hover to see current wind gust speed)